STARLINK-5696, 55484

Orbit data source: Space-Track

STARLINK-5696, 55484 is a payload satellite owned by SpaceX/Seattle (US) in LEO that was launched on Thu, 02 Feb 2023 UTC via an FALCON 9 launch vehicle from the Air Force Eastern Test Range (AFETR). Payload-class satellites include a variety of spacecraft equipped with specific instruments for various scientific and technological missions. These include communications satellites like Starlink; space stations such as the ISS; scientific satellites like the Hubble; Earth observation satellites from companies like Planet Labs, Umbra, and HawkEye 360; GPS; miniature CubeSats for education and research; and military/defense satellites.

Loading next visibility...
Identifier
55484, 2023-015AM
Orbit
LEO
Country
Flag of USUS
Related business
Manufacturer
SpaceX/Seattle
Mission
Operational Commercial Communications
Bus & Motor
STARLINK, Unknown motor
Mass
305 kg wet, ~290 kg dry
Launch date (UTC)
2023-02-02 (3 years ago)
Launch vehicle
FALCON 9
Launch site
Air Force Eastern Test Range (AFETR)
Object type
Payload
Rocket body
Debris
Shape & HBR
Box + 1 Pan, 10.1 m
Radar Cross Section
13.562 m², Large (>1 m²)

Expand to show TLE details & history
Last TLE update: 19 hours ago

TLE from 19 hours ago
0 STARLINK-5696
1 55484U 23015AM  25352.57774944 -.00000636  00000-0 -32021-4 0  9990
2 55484  43.0039  59.6356 0001108 272.0675  88.0041 15.02538344158404
Epoch: 2025-12-18T13:51Z
TLE epoch observation values (Epoch: 2025-12-18T13:51:57.551Z)
Latitude
0.00001°
Longitude
124.21456°
Altitude
558.824 km
Speed
7.584 km/s
True Right ascension
03h 58m 32s
True Declination
0° 00' 00"
Sunlit
Object was in full shadow at epoch
Visualization orbit readout
Latitude
Unknown
Longitude
Unknown
Altitude
Unknown
Speed
Unknown
Apparent Right ascension
Unknown
Apparent Declination
Unknown
Sunlit
N/A
Visualization observer readout
Local Sidereal Time
07:50:02
Azimuth
Unknown
Elevation
Unknown
Doppler factor
Unknown
Orbital elements
Apogee altitude
561.764 km
Perigee altitude
560.227 km
Semi-major axis
6,939.133 km
Eccentricity
0.00011
Inclination
43.0039°
RAAN
59.6356°
Arg. of periapsis
272.0675°
True anomaly
88.01679°
Mean anomaly
88.0041°
Eccentric anomaly
88.01044°
Mean motion
3.75479 °/min
Orbital period
95.88 mins
BSTAR
-0.000032021
Loading maneuver chart data...
Computing Atmospheric mass density...
Loading historical data...
Loading historical data...
Loading historical data...
Loading historical data...
Loading historical data...
Loading historical data...
Loading historical data...

Documentation

Showing up to 5 results
|